Location: Bittelbronn
(48.4454°N, 8.5870°E)
Time: 21:19:16
(UTC+00:00)

Cosmos 468 Rocket - Pass Details

Date: 23 May 2024
Orbit: 741 x 777 km, 74.0° (Epoch: 16 June)

Event Time Altitude Azimuth Distance (km) Brightness Sun altitude
Rises 00:40:10 0° 333° (NNW) 3,269 7.9 -18.8°
Reaches altitude 10° 00:42:36 10° 329° (NNW) 2,335 7.0 -18.6°
Maximum altitude 00:47:45 54° 254° (WSW) 933 4.2 -18.3°
Enters shadow 00:49:49 33° 194° (SSW) 1,265 4.6 -18.2°
